Tracking 31027 objects as of 19-Jul-2025
HD Live streaming from Space Station
objects crossing your sky now

WESTFORD NEEDLES

Track WESTFORD NEEDLES now!
10-day predictions
WESTFORD NEEDLES is classified as:


NORAD ID: 21660
Int'l Code: 1963-014FG
Perigee: 2,046.4 km
Apogee: 5,059.9 km
Inclination: 86.7 °
Period: 164.0 minutes
Semi major axis: 9924 km
RCS: 0.1099 m2 (medium)
Launch date: May 9, 1963
Source: United States (US)
Launch site: AIR FORCE WESTERN TEST RANGE (AFWTR)
Your satellite tracking list
ICEYE-X27
Track 1 satellite(s)




NASA's NSSDC Master Catalog

Two Line Element Set (TLE):
1 21660U 63014FG  25199.22940087 -.00003544  00000-0 -45038+0 0  9994
2 21660  86.6538 304.0133 1518277  19.4810   4.1569  8.78137589 38676
Source of the keplerian elements: AFSPC